contact:dominique.lefevre@mio.osupytheas.fr, maurice.libes@osupytheas.fr, didier.mallarino@osupytheas.fr
Project:EMSO http://www.emso-fr.org/EMSO-France
Depth: 2436.0 m
Title:EMSO Ligure Ouest : Data MII capteur MICROCAT
DateTime_Computer,Latitude,Longitude,Temperature,Conductivity,Pressure,DateTime_Instrument
DateTime_Computer,Latitude,Longitude,degC,S m-1,dbar,DateTime_Instrument
2023-11-04T00:00:43Z,42.805,6.029,13.3098,4.60140,2470.8,2023-11-04T02:03:09Z
2023-11-04T00:03:46Z,42.805,6.029,13.3060,4.60139,2470.754,2023-11-04T02:06:12Z
2023-11-04T00:06:49Z,42.805,6.029,13.3047,4.60180,2470.763,2023-11-04T02:09:15Z
2023-11-04T00:09:52Z,42.805,6.029,13.3079,4.60157,2470.74,2023-11-04T02:12:18Z
2023-11-04T00:12:55Z,42.805,6.029,13.3073,4.60122,2470.717,2023-11-04T02:15:21Z
2023-11-04T00:15:58Z,42.805,6.029,13.3071,4.60135,2470.777,2023-11-04T02:18:24Z
2023-11-04T00:19:01Z,42.805,6.029,13.3076,4.60114,2470.73,2023-11-04T02:21:27Z
2023-11-04T00:22:04Z,42.805,6.029,13.3073,4.60131,2470.763,2023-11-04T02:24:30Z
2023-11-04T00:25:07Z,42.805,6.029,13.3076,4.60178,2470.763,2023-11-04T02:27:33Z
2023-11-04T00:28:10Z,42.805,6.029,13.3070,4.60125,2470.74,2023-11-04T02:30:37Z
2023-11-04T00:31:13Z,42.805,6.029,13.3065,4.60187,2470.763,2023-11-04T02:33:40Z
2023-11-04T00:34:16Z,42.805,6.029,13.3063,4.60161,2470.717,2023-11-04T02:36:43Z
2023-11-04T00:37:20Z,42.805,6.029,13.3061,4.60160,2470.74,2023-11-04T02:39:46Z
2023-11-04T00:40:23Z,42.805,6.029,13.3098,4.60164,2470.74,2023-11-04T02:42:49Z
2023-11-04T00:43:26Z,42.805,6.029,13.3079,4.60122,2470.754,2023-11-04T02:45:52Z
2023-11-04T00:46:29Z,42.805,6.029,13.3078,4.60160,2470.73,2023-11-04T02:48:55Z
2023-11-04T00:49:32Z,42.805,6.029,13.3078,4.60183,2470.8,2023-11-04T02:51:58Z
2023-11-04T00:52:35Z,42.805,6.029,13.3077,4.60178,2470.763,2023-11-04T02:55:01Z
2023-11-04T00:55:38Z,42.805,6.029,13.3077,4.60185,2470.754,2023-11-04T02:58:04Z
2023-11-04T00:58:41Z,42.805,6.029,13.3096,4.60149,2470.73,2023-11-04T03:01:07Z
2023-11-04T01:01:44Z,42.805,6.029,13.3071,4.60194,2470.717,2023-11-04T03:04:10Z
2023-11-04T01:04:47Z,42.805,6.029,13.3056,4.60214,2470.74,2023-11-04T03:07:13Z
2023-11-04T01:07:50Z,42.805,6.029,13.3064,4.60174,2470.717,2023-11-04T03:10:17Z
2023-11-04T01:10:53Z,42.805,6.029,13.3063,4.60176,2470.754,2023-11-04T03:13:20Z
2023-11-04T01:13:56Z,42.805,6.029,13.3091,4.60185,2470.74,2023-11-04T03:16:23Z
2023-11-04T01:17:00Z,42.805,6.029,13.3052,4.60135,2470.73,2023-11-04T03:19:26Z
2023-11-04T01:20:03Z,42.805,6.029,13.3084,4.60178,2470.73,2023-11-04T03:22:29Z
2023-11-04T01:23:06Z,42.805,6.029,13.3097,4.60184,2470.754,2023-11-04T03:25:32Z
2023-11-04T01:26:09Z,42.805,6.029,13.3063,4.60161,2470.717,2023-11-04T03:28:35Z
2023-11-04T01:29:12Z,42.805,6.029,13.3065,4.60170,2470.73,2023-11-04T03:31:38Z
2023-11-04T01:32:15Z,42.805,6.029,13.3061,4.60155,2470.717,2023-11-04T03:34:41Z
2023-11-04T01:35:18Z,42.805,6.029,13.3054,4.60142,2470.717,2023-11-04T03:37:44Z
2023-11-04T01:38:21Z,42.805,6.029,13.3087,4.60169,2470.73,2023-11-04T03:40:47Z
2023-11-04T01:41:24Z,42.805,6.029,13.3100,4.60154,2470.73,2023-11-04T03:43:50Z
2023-11-04T01:44:27Z,42.805,6.029,13.3111,4.60161,2470.73,2023-11-04T03:46:53Z
2023-11-04T01:47:30Z,42.805,6.029,13.3089,4.60129,2470.684,2023-11-04T03:49:56Z
2023-11-04T01:50:33Z,42.805,6.029,13.3072,4.60150,2470.717,2023-11-04T03:53:00Z
2023-11-04T01:53:36Z,42.805,6.029,13.3100,4.60173,2470.707,2023-11-04T03:56:03Z
2023-11-04T01:56:40Z,42.805,6.029,13.3123,4.60201,2470.707,2023-11-04T03:59:06Z
2023-11-04T01:59:43Z,42.805,6.029,13.3128,4.60155,2470.73,2023-11-04T04:02:09Z
2023-11-04T02:02:46Z,42.805,6.029,13.3075,4.60160,2470.693,2023-11-04T04:05:12Z
2023-11-04T02:05:49Z,42.805,6.029,13.3078,4.60143,2470.707,2023-11-04T04:08:15Z
2023-11-04T02:08:52Z,42.805,6.029,13.3087,4.60157,2470.717,2023-11-04T04:11:18Z
2023-11-04T02:11:55Z,42.805,6.029,13.3083,4.60170,2470.693,2023-11-04T04:14:21Z
2023-11-04T02:14:58Z,42.805,6.029,13.3098,4.60132,2470.754,2023-11-04T04:17:24Z
2023-11-04T02:18:01Z,42.805,6.029,13.3093,4.60162,2470.73,2023-11-04T04:20:27Z
2023-11-04T02:21:04Z,42.805,6.029,13.3096,4.60192,2470.707,2023-11-04T04:23:30Z
2023-11-04T02:24:07Z,42.805,6.029,13.3118,4.60176,2470.707,2023-11-04T04:26:33Z
2023-11-04T02:27:10Z,42.805,6.029,13.3105,4.60155,2470.707,2023-11-04T04:29:36Z
2023-11-04T02:30:13Z,42.805,6.029,13.3109,4.60160,2470.707,2023-11-04T04:32:40Z
2023-11-04T02:33:16Z,42.805,6.029,13.3101,4.60135,2470.707,2023-11-04T04:35:43Z
2023-11-04T02:36:19Z,42.805,6.029,13.3118,4.60157,2470.707,2023-11-04T04:38:46Z
2023-11-04T02:39:23Z,42.805,6.029,13.3134,4.60132,2470.684,2023-11-04T04:41:49Z
2023-11-04T02:42:26Z,42.805,6.029,13.3133,4.60135,2470.73,2023-11-04T04:44:52Z
2023-11-04T02:45:29Z,42.805,6.029,13.3139,4.60117,2470.73,2023-11-04T04:47:55Z
2023-11-04T02:48:32Z,42.805,6.029,13.3132,4.60112,2470.693,2023-11-04T04:50:58Z
2023-11-04T02:51:35Z,42.805,6.029,13.3133,4.60115,2470.693,2023-11-04T04:54:01Z
2023-11-04T02:54:38Z,42.805,6.029,13.3120,4.60133,2470.73,2023-11-04T04:57:04Z
2023-11-04T02:57:41Z,42.805,6.029,13.3123,4.60134,2470.717,2023-11-04T05:00:07Z
2023-11-04T03:00:44Z,42.805,6.029,13.3113,4.60112,2470.707,2023-11-04T05:03:10Z
2023-11-04T03:03:47Z,42.805,6.029,13.3118,4.60120,2470.73,2023-11-04T05:06:13Z
2023-11-04T03:06:50Z,42.805,6.029,13.3113,4.60116,2470.754,2023-11-04T05:09:16Z
2023-11-04T03:09:53Z,42.805,6.029,13.3070,4.60123,2470.707,2023-11-04T05:12:20Z
2023-11-04T03:12:56Z,42.805,6.029,13.3061,4.60137,2470.717,2023-11-04T05:15:23Z
2023-11-04T03:15:59Z,42.805,6.029,13.3058,4.60130,2470.73,2023-11-04T05:18:26Z
2023-11-04T03:19:03Z,42.805,6.029,13.3050,4.60130,2470.693,2023-11-04T05:21:29Z
2023-11-04T03:22:06Z,42.805,6.029,13.3203,4.60122,2470.693,2023-11-04T05:24:32Z
2023-11-04T03:25:09Z,42.805,6.029,13.3046,4.60124,2470.707,2023-11-04T05:27:35Z
2023-11-04T03:28:12Z,42.805,6.029,13.3091,4.60113,2470.717,2023-11-04T05:30:38Z
2023-11-04T03:31:15Z,42.805,6.029,13.3219,4.60110,2470.707,2023-11-04T05:33:41Z
2023-11-04T03:34:18Z,42.805,6.029,13.3128,4.60111,2470.73,2023-11-04T05:36:44Z
2023-11-04T03:37:21Z,42.805,6.029,13.3041,4.60111,2470.707,2023-11-04T05:39:47Z
2023-11-04T03:40:24Z,42.805,6.029,13.3113,4.60113,2470.73,2023-11-04T05:42:50Z
2023-11-04T03:43:27Z,42.805,6.029,13.3041,4.60110,2470.693,2023-11-04T05:45:53Z
2023-11-04T03:46:30Z,42.805,6.029,13.3035,4.60114,2470.693,2023-11-04T05:48:56Z
2023-11-04T03:49:33Z,42.805,6.029,13.3034,4.60118,2470.717,2023-11-04T05:52:00Z
2023-11-04T03:52:36Z,42.805,6.029,13.3034,4.60111,2470.693,2023-11-04T05:55:03Z
2023-11-04T03:55:39Z,42.805,6.029,13.3034,4.60136,2470.693,2023-11-04T05:58:06Z
2023-11-04T03:58:43Z,42.805,6.029,13.3033,4.60126,2470.67,2023-11-04T06:01:09Z
2023-11-04T04:01:46Z,42.805,6.029,13.3034,4.60138,2470.67,2023-11-04T06:04:12Z
2023-11-04T04:04:49Z,42.805,6.029,13.3035,4.60117,2470.693,2023-11-04T06:07:15Z
2023-11-04T04:07:52Z,42.805,6.029,13.3036,4.60106,2470.717,2023-11-04T06:10:18Z
2023-11-04T04:10:55Z,42.805,6.029,13.3033,4.60120,2470.707,2023-11-04T06:13:21Z
2023-11-04T04:13:58Z,42.805,6.029,13.3035,4.60114,2470.67,2023-11-04T06:16:24Z
2023-11-04T04:17:01Z,42.805,6.029,13.3036,4.60114,2470.693,2023-11-04T06:19:27Z
2023-11-04T04:20:04Z,42.805,6.029,13.3032,4.60108,2470.73,2023-11-04T06:22:30Z
2023-11-04T04:23:07Z,42.805,6.029,13.3030,4.60105,2470.67,2023-11-04T06:25:33Z
2023-11-04T04:26:10Z,42.805,6.029,13.3039,4.60109,2470.67,2023-11-04T06:28:36Z
2023-11-04T04:29:13Z,42.805,6.029,13.3043,4.60107,2470.693,2023-11-04T06:31:40Z
2023-11-04T04:32:16Z,42.805,6.029,13.3044,4.60107,2470.707,2023-11-04T06:34:43Z
2023-11-04T04:35:19Z,42.805,6.029,13.3042,4.60107,2470.684,2023-11-04T06:37:46Z
2023-11-04T04:38:22Z,42.805,6.029,13.3039,4.60106,2470.707,2023-11-04T06:40:49Z
2023-11-04T04:41:26Z,42.805,6.029,13.3045,4.60102,2470.679,2023-11-04T06:43:52Z
2023-11-04T04:44:29Z,42.805,6.029,13.3041,4.60104,2470.67,2023-11-04T06:46:55Z
2023-11-04T04:47:32Z,42.805,6.029,13.3032,4.60102,2470.707,2023-11-04T06:49:58Z
2023-11-04T04:50:35Z,42.805,6.029,13.3032,4.60103,2470.693,2023-11-04T06:53:01Z
2023-11-04T04:53:38Z,42.805,6.029,13.3030,4.60101,2470.67,2023-11-04T06:56:04Z
2023-11-04T04:56:41Z,42.805,6.029,13.3032,4.60103,2470.67,2023-11-04T06:59:07Z
2023-11-04T04:59:44Z,42.805,6.029,13.3029,4.60099,2470.67,2023-11-04T07:02:10Z
2023-11-04T05:02:47Z,42.805,6.029,13.3034,4.60099,2470.684,2023-11-04T07:05:13Z
2023-11-04T05:05:50Z,42.805,6.029,13.3030,4.60102,2470.67,2023-11-04T07:08:16Z
2023-11-04T05:08:53Z,42.805,6.029,13.3031,4.60098,2470.67,2023-11-04T07:11:19Z
2023-11-04T05:11:56Z,42.805,6.029,13.3031,4.60099,2470.693,2023-11-04T07:14:23Z
2023-11-04T05:14:59Z,42.805,6.029,13.3032,4.60097,2470.693,2023-11-04T07:17:26Z
2023-11-04T05:18:03Z,42.805,6.029,13.3032,4.60097,2470.684,2023-11-04T07:20:29Z
2023-11-04T05:21:06Z,42.805,6.029,13.3029,4.60099,2470.67,2023-11-04T07:23:32Z
2023-11-04T05:24:09Z,42.805,6.029,13.3028,4.60103,2470.717,2023-11-04T07:26:35Z
2023-11-04T05:27:12Z,42.805,6.029,13.3026,4.60101,2470.67,2023-11-04T07:29:38Z
2023-11-04T05:30:15Z,42.805,6.029,13.3028,4.60098,2470.73,2023-11-04T07:32:41Z
2023-11-04T05:33:18Z,42.805,6.029,13.3027,4.60099,2470.67,2023-11-04T07:35:44Z
2023-11-04T05:36:21Z,42.805,6.029,13.3029,4.60112,2470.67,2023-11-04T07:38:47Z
2023-11-04T05:39:24Z,42.805,6.029,13.3029,4.60097,2470.646,2023-11-04T07:41:50Z
2023-11-04T05:42:27Z,42.805,6.029,13.3029,4.60098,2470.73,2023-11-04T07:44:53Z
2023-11-04T05:45:30Z,42.805,6.029,13.3029,4.60097,2470.693,2023-11-04T07:47:56Z
2023-11-04T05:48:33Z,42.805,6.029,13.3028,4.60098,2470.67,2023-11-04T07:51:00Z
2023-11-04T05:51:36Z,42.805,6.029,13.3029,4.60097,2470.684,2023-11-04T07:54:03Z
2023-11-04T05:54:39Z,42.805,6.029,13.3029,4.60098,2470.67,2023-11-04T07:57:06Z
2023-11-04T05:57:42Z,42.805,6.029,13.3026,4.60097,2470.661,2023-11-04T08:00:09Z
2023-11-04T06:00:46Z,42.805,6.029,13.3026,4.60097,2470.693,2023-11-04T08:03:12Z
2023-11-04T06:03:49Z,42.805,6.029,13.3032,4.60104,2470.693,2023-11-04T08:06:15Z
2023-11-04T06:06:52Z,42.805,6.029,13.3029,4.60097,2470.693,2023-11-04T08:09:18Z
2023-11-04T06:09:55Z,42.805,6.029,13.3026,4.60123,2470.693,2023-11-04T08:12:21Z
2023-11-04T06:12:58Z,42.805,6.029,13.3026,4.60098,2470.693,2023-11-04T08:15:24Z
2023-11-04T06:16:01Z,42.805,6.029,13.3025,4.60099,2470.693,2023-11-04T08:18:27Z
2023-11-04T06:19:04Z,42.805,6.029,13.3026,4.60099,2470.67,2023-11-04T08:21:30Z
2023-11-04T06:22:07Z,42.805,6.029,13.3030,4.60101,2470.67,2023-11-04T08:24:33Z
2023-11-04T06:25:10Z,42.805,6.029,13.3030,4.60102,2470.73,2023-11-04T08:27:36Z
2023-11-04T06:28:13Z,42.805,6.029,13.3030,4.60099,2470.707,2023-11-04T08:30:39Z
2023-11-04T06:31:16Z,42.805,6.029,13.3034,4.60100,2470.693,2023-11-04T08:33:43Z
2023-11-04T06:34:19Z,42.805,6.029,13.3028,4.60098,2470.693,2023-11-04T08:36:46Z
2023-11-04T06:37:22Z,42.805,6.029,13.3031,4.60098,2470.67,2023-11-04T08:39:49Z
2023-11-04T06:40:26Z,42.805,6.029,13.3030,4.60099,2470.73,2023-11-04T08:42:52Z
2023-11-04T06:43:29Z,42.805,6.029,13.3029,4.60099,2470.67,2023-11-04T08:45:55Z
2023-11-04T06:46:32Z,42.805,6.029,13.3034,4.60102,2470.67,2023-11-04T08:48:58Z
2023-11-04T06:49:35Z,42.805,6.029,13.3030,4.60101,2470.693,2023-11-04T08:52:01Z
2023-11-04T06:52:38Z,42.805,6.029,13.3031,4.60099,2470.693,2023-11-04T08:55:04Z
2023-11-04T06:55:41Z,42.805,6.029,13.3027,4.60102,2470.693,2023-11-04T08:58:07Z
2023-11-04T06:58:44Z,42.805,6.029,13.3028,4.60100,2470.73,2023-11-04T09:01:10Z
2023-11-04T07:01:47Z,42.805,6.029,13.3029,4.60102,2470.67,2023-11-04T09:04:13Z
2023-11-04T07:04:50Z,42.805,6.029,13.3029,4.60098,2470.707,2023-11-04T09:07:16Z
2023-11-04T07:07:53Z,42.805,6.029,13.3031,4.60105,2470.707,2023-11-04T09:10:19Z
2023-11-04T07:10:56Z,42.805,6.029,13.3033,4.60102,2470.693,2023-11-04T09:13:23Z
2023-11-04T07:13:59Z,42.805,6.029,13.3031,4.60102,2470.693,2023-11-04T09:16:26Z
2023-11-04T07:17:02Z,42.805,6.029,13.3033,4.60101,2470.707,2023-11-04T09:19:29Z
2023-11-04T07:20:06Z,42.805,6.029,13.3034,4.60100,2470.73,2023-11-04T09:22:32Z
2023-11-04T07:23:09Z,42.805,6.029,13.3031,4.60103,2470.73,2023-11-04T09:25:35Z
2023-11-04T07:26:12Z,42.805,6.029,13.3029,4.60097,2470.703,2023-11-04T09:28:38Z
2023-11-04T07:29:15Z,42.805,6.029,13.3032,4.60099,2470.73,2023-11-04T09:31:41Z
2023-11-04T07:32:18Z,42.805,6.029,13.3030,4.60101,2470.73,2023-11-04T09:34:44Z
2023-11-04T07:35:21Z,42.805,6.029,13.3033,4.60101,2470.717,2023-11-04T09:37:47Z
2023-11-04T07:38:24Z,42.805,6.029,13.3029,4.60099,2470.693,2023-11-04T09:40:50Z
2023-11-04T07:41:27Z,42.805,6.029,13.3030,4.60104,2470.754,2023-11-04T09:43:53Z
2023-11-04T07:44:30Z,42.805,6.029,13.3031,4.60100,2470.693,2023-11-04T09:46:56Z
2023-11-04T07:47:33Z,42.805,6.029,13.3031,4.60102,2470.693,2023-11-04T09:49:59Z
2023-11-04T07:50:36Z,42.805,6.029,13.3029,4.60099,2470.717,2023-11-04T09:53:03Z
2023-11-04T07:53:39Z,42.805,6.029,13.3029,4.60099,2470.693,2023-11-04T09:56:06Z
2023-11-04T07:56:42Z,42.805,6.029,13.3029,4.60099,2470.717,2023-11-04T09:59:09Z
2023-11-04T07:59:45Z,42.805,6.029,13.3033,4.60097,2470.74,2023-11-04T10:02:12Z
2023-11-04T08:02:49Z,42.805,6.029,13.3029,4.60097,2470.74,2023-11-04T10:05:15Z
2023-11-04T08:05:52Z,42.805,6.029,13.3026,4.60099,2470.707,2023-11-04T10:08:18Z
2023-11-04T08:08:55Z,42.805,6.029,13.3026,4.60099,2470.8,2023-11-04T10:11:21Z
2023-11-04T08:11:58Z,42.805,6.029,13.3025,4.60110,2470.74,2023-11-04T10:14:24Z
2023-11-04T08:15:01Z,42.805,6.029,13.3027,4.60097,2470.763,2023-11-04T10:17:27Z
2023-11-04T08:18:04Z,42.805,6.029,13.3034,4.60099,2470.74,2023-11-04T10:20:30Z
2023-11-04T08:21:07Z,42.805,6.029,13.3035,4.60099,2470.74,2023-11-04T10:23:33Z
2023-11-04T08:24:10Z,42.805,6.029,13.3024,4.60099,2470.74,2023-11-04T10:26:36Z
2023-11-04T08:27:13Z,42.805,6.029,13.3030,4.60095,2470.74,2023-11-04T10:29:39Z
2023-11-04T08:30:16Z,42.805,6.029,13.3030,4.60097,2470.74,2023-11-04T10:32:43Z
2023-11-04T08:33:19Z,42.805,6.029,13.3031,4.60097,2470.763,2023-11-04T10:35:46Z
2023-11-04T08:36:22Z,42.805,6.029,13.3030,4.60097,2470.763,2023-11-04T10:38:49Z
2023-11-04T08:39:26Z,42.805,6.029,13.3031,4.60099,2470.763,2023-11-04T10:41:52Z
2023-11-04T08:42:29Z,42.805,6.029,13.3031,4.60097,2470.763,2023-11-04T10:44:55Z
2023-11-04T08:45:32Z,42.805,6.029,13.3026,4.60099,2470.74,2023-11-04T10:47:58Z
2023-11-04T08:48:35Z,42.805,6.029,13.3029,4.60099,2470.787,2023-11-04T10:51:01Z
2023-11-04T08:51:38Z,42.805,6.029,13.3029,4.60101,2470.763,2023-11-04T10:54:04Z
2023-11-04T08:54:41Z,42.805,6.029,13.3031,4.60101,2470.754,2023-11-04T10:57:07Z
2023-11-04T08:57:44Z,42.805,6.029,13.3031,4.60098,2470.763,2023-11-04T11:00:10Z
2023-11-04T09:00:47Z,42.805,6.029,13.3035,4.60098,2470.763,2023-11-04T11:03:13Z
2023-11-04T09:03:50Z,42.805,6.029,13.3029,4.60099,2470.81,2023-11-04T11:06:16Z
2023-11-04T09:06:53Z,42.805,6.029,13.3034,4.60098,2470.824,2023-11-04T11:09:19Z
2023-11-04T09:09:56Z,42.805,6.029,13.3028,4.60097,2470.763,2023-11-04T11:12:23Z
2023-11-04T09:12:59Z,42.805,6.029,13.3032,4.60097,2470.74,2023-11-04T11:15:26Z
2023-11-04T09:16:02Z,42.805,6.029,13.3029,4.60097,2470.787,2023-11-04T11:18:29Z
2023-11-04T09:19:06Z,42.805,6.029,13.3030,4.60098,2470.763,2023-11-04T11:21:32Z
2023-11-04T09:22:09Z,42.805,6.029,13.3028,4.60110,2470.81,2023-11-04T11:24:35Z
2023-11-04T09:25:12Z,42.805,6.029,13.3029,4.60097,2470.763,2023-11-04T11:27:38Z
2023-11-04T09:28:15Z,42.805,6.029,13.3031,4.60098,2470.824,2023-11-04T11:30:41Z
2023-11-04T09:31:18Z,42.805,6.029,13.3029,4.60098,2470.75,2023-11-04T11:33:44Z
2023-11-04T09:34:21Z,42.805,6.029,13.3031,4.60099,2470.787,2023-11-04T11:36:47Z
2023-11-04T09:37:24Z,42.805,6.029,13.3031,4.60099,2470.787,2023-11-04T11:39:50Z
2023-11-04T09:40:27Z,42.805,6.029,13.3029,4.60099,2470.75,2023-11-04T11:42:53Z
2023-11-04T09:43:30Z,42.805,6.029,13.3028,4.60110,2470.787,2023-11-04T11:45:56Z
2023-11-04T09:46:33Z,42.805,6.029,13.3027,4.60102,2470.81,2023-11-04T11:49:00Z
2023-11-04T09:49:36Z,42.805,6.029,13.3031,4.60097,2470.81,2023-11-04T11:52:03Z
2023-11-04T09:52:39Z,42.805,6.029,13.3032,4.60099,2470.81,2023-11-04T11:55:06Z
2023-11-04T09:55:42Z,42.805,6.029,13.3031,4.60097,2470.8,2023-11-04T11:58:09Z
2023-11-04T09:58:46Z,42.805,6.029,13.3032,4.60098,2470.81,2023-11-04T12:01:12Z
2023-11-04T10:01:49Z,42.805,6.029,13.3029,4.60111,2470.787,2023-11-04T12:04:15Z
2023-11-04T10:04:52Z,42.805,6.029,13.3030,4.60099,2470.81,2023-11-04T12:07:18Z
2023-11-04T10:07:55Z,42.805,6.029,13.3029,4.60098,2470.833,2023-11-04T12:10:21Z
2023-11-04T10:10:58Z,42.805,6.029,13.3029,4.60099,2470.796,2023-11-04T12:13:24Z
2023-11-04T10:14:01Z,42.805,6.029,13.3028,4.60099,2470.82,2023-11-04T12:16:27Z
2023-11-04T10:17:04Z,42.805,6.029,13.3025,4.60098,2470.847,2023-11-04T12:19:30Z
2023-11-04T10:20:07Z,42.805,6.029,13.3030,4.60098,2470.833,2023-11-04T12:22:33Z
2023-11-04T10:23:10Z,42.805,6.029,13.3029,4.60099,2470.81,2023-11-04T12:25:36Z
2023-11-04T10:26:13Z,42.805,6.029,13.3031,4.60099,2470.857,2023-11-04T12:28:40Z
2023-11-04T10:29:16Z,42.805,6.029,13.3031,4.60099,2470.833,2023-11-04T12:31:43Z
2023-11-04T10:32:19Z,42.805,6.029,13.3031,4.60097,2470.81,2023-11-04T12:34:46Z
2023-11-04T10:35:23Z,42.805,6.029,13.3031,4.60099,2470.88,2023-11-04T12:37:49Z
2023-11-04T10:38:26Z,42.805,6.029,13.3033,4.60099,2470.847,2023-11-04T12:40:52Z
2023-11-04T10:41:29Z,42.805,6.029,13.3031,4.60098,2470.81,2023-11-04T12:43:55Z
2023-11-04T10:44:32Z,42.805,6.029,13.3031,4.60097,2470.833,2023-11-04T12:46:58Z
2023-11-04T10:47:35Z,42.805,6.029,13.3029,4.60098,2470.847,2023-11-04T12:50:01Z
2023-11-04T10:50:38Z,42.805,6.029,13.3030,4.60101,2470.857,2023-11-04T12:53:04Z
2023-11-04T10:53:41Z,42.805,6.029,13.3032,4.60099,2470.833,2023-11-04T12:56:07Z
2023-11-04T10:56:44Z,42.805,6.029,13.3030,4.60099,2470.857,2023-11-04T12:59:10Z
2023-11-04T10:59:47Z,42.805,6.029,13.3027,4.60099,2470.833,2023-11-04T13:02:13Z
2023-11-04T11:02:50Z,42.805,6.029,13.3031,4.60102,2470.833,2023-11-04T13:05:17Z
2023-11-04T11:05:53Z,42.805,6.029,13.3030,4.60100,2470.81,2023-11-04T13:08:20Z
2023-11-04T11:08:56Z,42.805,6.029,13.3025,4.60099,2470.847,2023-11-04T13:11:23Z
2023-11-04T11:11:59Z,42.805,6.029,13.3028,4.60099,2470.81,2023-11-04T13:14:26Z
2023-11-04T11:15:03Z,42.805,6.029,13.3029,4.60098,2470.857,2023-11-04T13:17:29Z
2023-11-04T11:18:06Z,42.805,6.029,13.3029,4.60099,2470.81,2023-11-04T13:20:32Z
2023-11-04T11:21:09Z,42.805,6.029,13.3029,4.60099,2470.81,2023-11-04T13:23:35Z
2023-11-04T11:24:12Z,42.805,6.029,13.3029,4.60104,2470.824,2023-11-04T13:26:38Z
2023-11-04T11:27:15Z,42.805,6.029,13.3030,4.60104,2470.857,2023-11-04T13:29:41Z
2023-11-04T11:30:18Z,42.805,6.029,13.3031,4.60099,2470.847,2023-11-04T13:32:44Z
2023-11-04T11:33:21Z,42.805,6.029,13.3029,4.60101,2470.833,2023-11-04T13:35:47Z
2023-11-04T11:36:24Z,42.805,6.029,13.3031,4.60102,2470.833,2023-11-04T13:38:50Z
2023-11-04T11:39:27Z,42.805,6.029,13.3032,4.60109,2470.824,2023-11-04T13:41:53Z
2023-11-04T11:42:30Z,42.805,6.029,13.3030,4.60101,2470.847,2023-11-04T13:44:57Z
2023-11-04T11:45:33Z,42.805,6.029,13.3027,4.60099,2470.857,2023-11-04T13:48:00Z
2023-11-04T11:48:36Z,42.805,6.029,13.3030,4.60105,2470.847,2023-11-04T13:51:03Z
2023-11-04T11:51:40Z,42.805,6.029,13.3031,4.60099,2470.833,2023-11-04T13:54:06Z
2023-11-04T11:54:43Z,42.805,6.029,13.3035,4.60101,2470.833,2023-11-04T13:57:09Z
2023-11-04T11:57:46Z,42.805,6.029,13.3033,4.60101,2470.871,2023-11-04T14:00:12Z
2023-11-04T12:00:49Z,42.805,6.029,13.3035,4.60102,2470.833,2023-11-04T14:03:15Z
2023-11-04T12:03:52Z,42.805,6.029,13.3033,4.60103,2470.833,2023-11-04T14:06:18Z
2023-11-04T12:06:55Z,42.805,6.029,13.3028,4.60101,2470.857,2023-11-04T14:09:21Z
2023-11-04T12:09:58Z,42.805,6.029,13.3026,4.60109,2470.833,2023-11-04T14:12:24Z
2023-11-04T12:13:01Z,42.805,6.029,13.3032,4.60110,2470.796,2023-11-04T14:15:27Z
2023-11-04T12:16:04Z,42.805,6.029,13.3031,4.60104,2470.833,2023-11-04T14:18:30Z
2023-11-04T12:19:07Z,42.805,6.029,13.3027,4.60104,2470.847,2023-11-04T14:21:34Z
2023-11-04T12:22:10Z,42.805,6.029,13.3030,4.60101,2470.81,2023-11-04T14:24:37Z
2023-11-04T12:25:13Z,42.805,6.029,13.3030,4.60108,2470.833,2023-11-04T14:27:40Z
2023-11-04T12:28:16Z,42.805,6.029,13.3029,4.60102,2470.833,2023-11-04T14:30:43Z
2023-11-04T12:31:20Z,42.805,6.029,13.3029,4.60102,2470.824,2023-11-04T14:33:46Z
2023-11-04T12:34:23Z,42.805,6.029,13.3027,4.60100,2470.824,2023-11-04T14:36:49Z
2023-11-04T12:37:26Z,42.805,6.029,13.3031,4.60102,2470.8,2023-11-04T14:39:52Z
2023-11-04T12:40:29Z,42.805,6.029,13.3032,4.60099,2470.824,2023-11-04T14:42:55Z
2023-11-04T12:43:32Z,42.805,6.029,13.3030,4.60101,2470.833,2023-11-04T14:45:58Z
2023-11-04T12:46:35Z,42.805,6.029,13.3033,4.60104,2470.847,2023-11-04T14:49:01Z
2023-11-04T12:49:38Z,42.805,6.029,13.3031,4.60106,2470.81,2023-11-04T14:52:04Z
2023-11-04T12:52:41Z,42.805,6.029,13.3031,4.60102,2470.833,2023-11-04T14:55:07Z
2023-11-04T12:55:44Z,42.805,6.029,13.3029,4.60099,2470.81,2023-11-04T14:58:10Z
2023-11-04T12:58:47Z,42.805,6.029,13.3032,4.60101,2470.833,2023-11-04T15:01:14Z
2023-11-04T13:01:50Z,42.805,6.029,13.3029,4.60099,2470.787,2023-11-04T15:04:17Z
2023-11-04T13:04:53Z,42.805,6.029,13.3034,4.60099,2470.847,2023-11-04T15:07:20Z
2023-11-04T13:07:57Z,42.805,6.029,13.3031,4.60101,2470.833,2023-11-04T15:10:23Z
2023-11-04T13:11:00Z,42.805,6.029,13.3031,4.60099,2470.787,2023-11-04T15:13:26Z
2023-11-04T13:14:03Z,42.805,6.029,13.3026,4.60098,2470.847,2023-11-04T15:16:29Z
2023-11-04T13:17:06Z,42.805,6.029,13.3031,4.60099,2470.787,2023-11-04T15:19:32Z
2023-11-04T13:20:09Z,42.805,6.029,13.3028,4.60097,2470.773,2023-11-04T15:22:35Z
2023-11-04T13:23:12Z,42.805,6.029,13.3028,4.60097,2470.81,2023-11-04T15:25:38Z
2023-11-04T13:26:15Z,42.805,6.029,13.3031,4.60099,2470.824,2023-11-04T15:28:41Z
2023-11-04T13:29:18Z,42.805,6.029,13.3031,4.60097,2470.787,2023-11-04T15:31:44Z
2023-11-04T13:32:19Z,42.805,6.029,13.3029,4.60099,2470.81,2023-11-04T15:34:46Z
2023-11-04T13:35:22Z,42.805,6.029,13.3030,4.60101,2470.81,2023-11-04T15:37:49Z
2023-11-04T13:38:25Z,42.805,6.029,13.3029,4.60103,2470.81,2023-11-04T15:40:52Z
2023-11-04T13:41:29Z,42.805,6.029,13.3029,4.60122,2470.81,2023-11-04T15:43:55Z
2023-11-04T13:44:32Z,42.805,6.029,13.3030,4.60102,2470.81,2023-11-04T15:46:58Z
2023-11-04T13:47:35Z,42.805,6.029,13.3029,4.60113,2470.787,2023-11-04T15:50:01Z
2023-11-04T13:50:38Z,42.805,6.029,13.3029,4.60099,2470.824,2023-11-04T15:53:04Z
2023-11-04T13:53:41Z,42.805,6.029,13.3027,4.60100,2470.787,2023-11-04T15:56:07Z
2023-11-04T13:56:44Z,42.805,6.029,13.3029,4.60100,2470.824,2023-11-04T15:59:10Z
2023-11-04T13:59:47Z,42.805,6.029,13.3029,4.60099,2470.81,2023-11-04T16:02:13Z
2023-11-04T14:02:50Z,42.805,6.029,13.3026,4.60098,2470.787,2023-11-04T16:05:16Z
2023-11-04T14:05:53Z,42.805,6.029,13.3026,4.60099,2470.824,2023-11-04T16:08:19Z
2023-11-04T14:08:56Z,42.805,6.029,13.3031,4.60098,2470.8,2023-11-04T16:11:23Z
2023-11-04T14:11:59Z,42.805,6.029,13.3032,4.60099,2470.787,2023-11-04T16:14:26Z
2023-11-04T14:15:02Z,42.805,6.029,13.3031,4.60101,2470.81,2023-11-04T16:17:29Z
2023-11-04T14:18:06Z,42.805,6.029,13.3031,4.60102,2470.824,2023-11-04T16:20:32Z
2023-11-04T14:21:09Z,42.805,6.029,13.3029,4.60106,2470.787,2023-11-04T16:23:35Z
2023-11-04T14:24:12Z,42.805,6.029,13.3026,4.60116,2470.787,2023-11-04T16:26:38Z
2023-11-04T14:27:15Z,42.805,6.029,13.3029,4.60097,2470.787,2023-11-04T16:29:41Z
2023-11-04T14:30:18Z,42.805,6.029,13.3031,4.60101,2470.787,2023-11-04T16:32:44Z
2023-11-04T14:33:21Z,42.805,6.029,13.3029,4.60097,2470.8,2023-11-04T16:35:47Z
2023-11-04T14:36:24Z,42.805,6.029,13.3024,4.60099,2470.787,2023-11-04T16:38:50Z
2023-11-04T14:39:27Z,42.805,6.029,13.3030,4.60100,2470.8,2023-11-04T16:41:53Z
2023-11-04T14:42:30Z,42.805,6.029,13.3030,4.60103,2470.833,2023-11-04T16:44:56Z
2023-11-04T14:45:33Z,42.805,6.029,13.3029,4.60104,2470.81,2023-11-04T16:48:00Z
2023-11-04T14:48:36Z,42.805,6.029,13.3029,4.60099,2470.824,2023-11-04T16:51:03Z
2023-11-04T14:51:39Z,42.805,6.029,13.3027,4.60098,2470.787,2023-11-04T16:54:06Z
2023-11-04T14:54:43Z,42.805,6.029,13.3031,4.60102,2470.787,2023-11-04T16:57:09Z
2023-11-04T14:57:46Z,42.805,6.029,13.3029,4.60097,2470.8,2023-11-04T17:00:12Z
2023-11-04T15:00:49Z,42.805,6.029,13.3030,4.60097,2470.8,2023-11-04T17:03:15Z